Погода в Ольховатке

Россия / Воронежская область     50°16′56″N   39°17′28″E
темп.,
°C
ветер,
м/с
пор.,
м/с
влажн.,
%
обл.,
%
осадки,
мм/ч
давл.,
гПа
погр.,
м
11 апреля, вс
вс1100:00+6с41160100 0.0 1025247
03:00+4с3106799 0.0 1026232
06:00+5ссв51365100 0.0 1026396
09:00+8ссв71257100 0.0 1027639
12:00+11ссв81045100 0.0 1026885
15:00+13ссв8104452 0.0 10251081
18:00+11ссв71151100 0.0 1025869
21:00+10св6117595 0.0 1025644
12 апреля, пн
пн1200:00+8св5108799 0.0 1025364
03:00+7св51096100 0.0 1024260
06:00+7св51196100 0.0 1024258
09:00+13всв697086 0.0 1023394
12:00+20в71040100 0.0 1022889
15:00+23вюв7103262 0.0 10211598
18:00+20юв5104394 0.0 1022307
21:00+15в366188 0.0 102391
13 апреля, вт
вт1300:00+13вюв4126799 0.0 1023281
03:00+11вюв387383 0.0 1023168
06:00+10вюв3776100 0.0 1024130
09:00+15вюв5956100 0.0 1023477
12:00+19вюв7935100 0.0 10221146
15:00+21юв69325 0.0 10211989
18:00+19юв5841100 0.0 1021275
21:00+14юз486280 0.0 1022192
14 апреля, ср
ср1400:00+12св1170100 0.0 102111
03:00+11в366499 0.0 1021121
06:00+10в3663100 0.0 1020125
09:00+15вюв464735 0.0 1020476
12:00+19юв6734100 0.0 10181524
15:00+20юв5629100 0.0 10182063
18:00+18вюв2336100 0.0 101750
21:00+14всв3446100 0.0 101658
15 апреля, чт
чт1500:00+13в31051100 0.0 1015184
03:00+12в2357100 0.0 101545
06:00+11в2462100 0.0 101489
09:00+14ю4860100 0.0 1013574
12:00+11ююв5885100 1.6 1013617
15:00+11ю687998 2.6 1013820
18:00+12ююз486582 0.0 1012928
21:00+11юв0173100 0.0 101210